GFSNGP_925_temp_276.txt.gz
Temp
18 20 21 21 21 22 22 22 21 23 24 26 26 24 22 20 20 18 18 18 18 17 16 14 13 12 11 11 9 9 8 8 7 6 5 5 5 4 4 4 4 4 4 3
14 17 19 19 21 22 22 22 23 23 23 26 26 23 20 19 19 18 18 18 18 17 16 14 13 12 11 10 9 9 8 8 6 6 5 5 4 4 4 4 4 3 3 3
13 17 18 17 19 21 22 23 23 22 24 26 24 22 21 20 18 19 18 19 18 17 16 14 13 12 11 9 9 8 8 7 6 6 5 5 4 4 4 4 3 3 3 3
10 14 13 19 22 22 21 22 23 23 24 25 24 24 22 21 18 18 18 18 18 18 16 14 13 11 10 9 8 8 7 7 6 5 5 5 5 4 4 4 4 3 3 2
9 13 16 19 21 21 21 21 23 23 23 24 25 25 23 21 19 18 18 18 18 16 15 14 12 11 10 9 8 8 7 6 6 5 5 5 5 4 4 4 4 3 2 2
11 10 12 18 20 21 21 19 23 23 23 23 24 22 23 23 19 17 17 17 16 15 15 13 12 11 10 9 8 8 7 6 6 5 5 5 4 4 4 4 3 3 2 1
10 10 14 18 19 21 18 20 23 23 23 23 23 23 24 20 18 18 17 16 15 15 14 13 11 10 10 9 8 8 7 6 5 5 5 4 4 3 3 3 3 3 2 1
9 10 11 18 18 17 14 16 14 17 21 21 21 22 22 19 18 17 17 16 15 15 14 11 10 10 10 9 8 7 6 5 5 5 4 4 3 3 3 3 3 3 3 2
4 11 16 16 13 13 12 12 12 13 14 15 18 19 20 19 17 17 17 16 14 14 13 11 10 10 10 9 8 6 6 5 5 4 4 4 4 3 3 3 4 3 3 2
5 10 9 9 10 12 11 10 11 12 13 15 16 18 18 18 17 16 16 15 14 14 13 11 11 11 10 9 7 6 6 5 4 4 3 3 4 3 3 3 3 3 2 2
5 6 7 9 12 10 9 9 10 12 12 12 13 16 18 18 17 16 16 14 14 14 13 11 11 10 9 8 7 6 6 5 4 4 4 3 3 3 3 1 1 2 1 0
6 7 7 7 8 9 8 8 9 11 12 12 12 14 17 17 17 16 15 14 14 13 12 11 11 10 9 7 7 6 6 5 5 4 4 3 2 -0 -1 -2 -2 -2 -2 -1
6 6 6 7 7 7 7 8 9 11 11 11 12 14 15 17 17 15 14 14 14 13 12 11 11 9 8 7 7 6 6 5 4 4 4 3 2 1 -2 -5 -4 -3 -3 -2
6 6 5 6 7 7 8 9 9 10 10 11 12 13 14 16 16 15 14 13 13 12 11 11 10 8 7 6 6 6 6 5 4 4 3 3 2 2 0 -1 -2 -4 -4 -5
5 6 6 6 7 7 7 8 8 9 10 11 11 13 14 15 15 14 13 13 12 11 10 10 9 8 6 6 6 6 5 4 5 4 3 3 2 2 1 1 0 -1 -4 -5
5 5 6 6 6 6 8 7 9 9 10 10 11 13 13 14 14 13 13 12 12 11 10 9 8 6 5 6 6 5 4 4 4 3 2 2 1 1 1 0 -1 -1 -2 -3
5 5 6 5 5 6 6 8 8 9 9 10 11 12 12 13 13 12 12 11 11 10 9 9 7 5 5 6 5 5 3 2 3 2 2 1 1 1 0 -0 -1 -2 -3 -5
6 6 6 6 6 6 6 7 8 8 9 10 10 11 12 12 12 12 11 10 10 9 9 8 6 5 5 5 4 4 2 1 2 2 1 1 1 0 -0 -1 -2 -3 -4 -5
6 6 6 6 6 6 7 7 8 9 9 10 10 5 7 9 10 10 9 8 7 7 8 6 4 4 4 4 4 2 2 2 2 1 1 0 -0 -1 -1 -2 -3 -4 -5 -6
6 6 6 6 6 7 7 7 7 9 9 9 7 4 3 4 7 6 7 6 7 7 6 4 3 4 4 3 2 2 2 1 1 0 -1 -1 -2 -2 -3 -3 -4 -5 -6 -6
7 7 6 6 5 6 6 7 7 8 9 9 4 3 3 3 4 4 4 5 4 5 4 2 4 3 2 1 2 1 1 0 -0 -2 -2 -3 -3 -3 -4 -5 -5 -6 -6 -6
9 8 6 6 6 6 6 7 8 8 9 8 3 3 3 3 3 3 4 5 3 3 1 4 3 2 1 1 2 1 -0 -1 -1 -2 -3 -3 -3 -4 -5 -5 -5 -6 -6 -7
10 9 8 6 6 7 7 8 8 8 7 4 2 3 4 5 4 5 5 4 2 2 3 3 2 1 0 2 0 -0 -1 -1 -2 -2 -3 -3 -4 -4 -4 -5 -5 -6 -7 -7
9 9 8 8 7 7 7 8 9 9 8 8 5 4 5 6 5 6 6 2 2 2 4 2 0 1 1 0 -0 -1 -1 -2 -2 -2 -3 -3 -4 -4 -5 -5 -6 -6 -7 -7
9 8 8 8 8 9 9 9 9 8 7 7 6 4 6 5 5 6 2 2 0 3 1 -1 -0 1 1 -0 -1 -1 -1 -1 -1 -2 -3 -3 -4 -4 -4 -5 -6 -6 -7 -7
9 9 10 10 10 10 10 9 8 6 6 7 5 4 5 5 5 2 2 0 2 1 -2 -2 -1 -0 -0 -1 -1 -1 -1 -1 -1 -1 -1 -2 -3 -3 -4 -5 -5 -6 -6 -7
9 8 9 9 9 9 9 7 5 6 6 5 5 5 4 3 2 2 1 1 1 -1 -2 -2 -1 -1 -1 -1 -1 -1 -1 -1 -0 -1 -1 -1 -2 -2 -3 -4 -5 -5 -6 -6

GFSNGP_925_temp_279.txt.gz
Temp
18 20 21 21 22 24 23 24 23 24 25 26 28 28 28 28 28 26 24 23 21 20 19 17 16 15 14 13 12 12 11 11 10 9 9 8 8 7 7 7 7 7 6 6
13 16 18 18 20 22 24 24 24 25 25 27 28 29 28 27 26 25 24 22 21 20 19 18 16 15 14 13 12 12 11 11 9 9 8 8 7 7 6 6 6 6 6 6
11 15 17 16 19 21 22 24 24 23 25 27 26 27 26 26 25 24 23 22 21 21 20 18 16 15 14 13 12 11 11 10 9 8 8 7 7 7 6 6 6 6 6 5
11 12 10 17 21 22 22 23 24 24 25 26 26 27 27 26 24 24 23 22 22 22 19 18 16 15 14 13 11 11 10 9 9 8 8 7 7 7 6 6 6 6 5 5
10 12 13 16 19 21 22 22 24 24 25 26 26 26 26 27 25 24 22 22 22 21 19 17 16 15 13 12 11 11 10 9 8 8 8 7 7 7 6 6 6 5 5 5
10 10 11 15 18 21 21 20 20 20 22 25 25 23 25 27 26 24 23 21 21 20 18 17 16 15 13 12 11 11 10 9 8 8 8 7 7 7 6 6 6 6 5 4
10 10 12 17 19 20 16 16 15 17 17 19 23 25 26 26 26 23 21 20 20 19 18 17 16 14 13 12 12 11 10 9 8 8 8 7 7 6 6 6 6 5 5 4
10 10 9 17 17 15 12 14 14 15 15 16 18 20 22 24 24 22 20 19 19 18 18 17 15 14 13 12 11 10 9 9 8 8 8 7 6 6 6 6 5 5 5 4
5 8 15 10 11 12 13 12 12 12 14 15 15 17 19 21 23 22 21 20 19 18 18 16 15 13 12 11 11 10 9 8 8 7 7 6 6 6 6 6 6 5 5 5
7 9 10 11 9 11 11 11 11 11 12 13 14 15 16 19 21 21 21 20 18 18 17 16 14 13 12 11 10 9 9 8 7 7 7 6 6 6 6 6 6 6 6 5
7 8 9 10 10 10 7 10 10 10 11 12 14 14 15 16 19 20 20 20 18 18 17 15 13 13 13 11 10 9 9 8 7 7 6 6 6 6 6 5 5 5 5 4
7 8 8 9 10 10 9 9 9 9 9 11 13 13 14 15 17 19 19 19 18 18 17 15 13 14 12 11 9 9 8 8 7 6 6 6 3 2 4 3 3 3 2 2
7 8 8 8 8 9 8 9 9 9 10 11 12 12 13 15 16 16 18 18 17 17 16 15 13 14 12 10 9 9 8 7 6 5 6 6 4 2 -1 -2 -0 -0 -0 -0
7 7 7 8 8 8 8 9 9 9 9 10 10 11 13 14 15 16 18 17 16 16 16 14 14 14 11 10 9 9 8 7 6 6 6 5 4 3 1 -1 -2 -3 -2 -2
7 7 8 8 8 8 8 8 8 8 9 9 10 12 13 13 14 16 17 16 15 15 15 14 14 12 10 9 9 8 7 7 6 6 5 5 5 3 2 2 1 -1 -4 -4
7 7 8 8 8 8 7 7 8 8 8 9 10 11 12 12 13 14 16 16 15 15 15 13 13 11 9 9 8 8 7 6 6 6 5 5 4 4 3 3 2 0 -1 -2
7 7 7 7 7 8 8 8 8 9 9 9 10 10 11 12 13 14 16 15 14 14 14 12 12 10 8 9 8 7 6 6 6 5 4 5 4 4 3 3 2 1 1 -1
8 8 8 8 8 7 8 8 8 8 8 8 8 9 10 11 12 13 15 14 14 13 13 12 11 9 8 8 7 6 6 5 5 4 4 4 3 3 3 2 1 1 -1 -3
5 5 9 8 8 8 8 8 8 7 7 7 7 6 7 8 9 11 13 13 10 11 11 11 9 8 8 7 7 5 5 5 4 3 3 3 3 2 2 1 0 -1 -3 -5
2 2 3 9 8 8 8 8 7 7 7 7 6 5 4 3 5 6 10 8 10 11 10 10 8 7 7 6 5 5 4 4 3 3 2 2 2 1 0 -0 -1 -3 -4 -5
2 4 3 7 8 7 6 7 6 6 7 7 6 5 4 3 4 5 5 8 8 9 9 7 6 7 6 4 4 4 4 3 3 2 1 1 -0 -1 -1 -2 -3 -4 -4 -4
4 4 6 8 8 7 7 6 6 7 6 6 6 5 3 4 3 4 8 8 7 8 7 5 6 6 5 4 4 3 3 3 1 0 -0 -1 -2 -2 -3 -3 -4 -4 -4 -5
2 5 8 9 8 8 8 7 7 7 6 6 5 4 5 8 7 7 7 7 7 7 4 5 6 5 3 5 3 3 2 1 0 -0 -1 -2 -2 -3 -3 -4 -4 -4 -5 -5
3 6 10 10 9 8 8 8 7 7 7 8 8 6 7 8 7 7 7 6 6 4 5 5 5 4 3 3 2 1 1 -0 -0 -1 -2 -2 -3 -3 -3 -4 -4 -4 -5 -5
4 9 11 10 9 9 9 9 8 8 8 9 8 8 7 8 7 7 7 5 4 3 5 4 3 2 3 1 1 0 -0 -1 -1 -1 -2 -2 -3 -3 -3 -4 -4 -4 -4 -5
4 9 11 10 10 10 9 10 10 10 10 10 10 9 6 7 7 6 6 4 2 4 1 -0 1 1 0 0 -0 -0 -1 -1 -1 -1 -1 -2 -3 -3 -3 -3 -4 -4 -4 -4
6 5 9 10 10 10 10 10 10 10 10 10 9 7 6 7 6 6 4 2 3 2 -1 -1 0 -0 -0 -1 -1 -1 -1 -1 -1 -1 -1 -2 -2 -2 -2 -3 -3 -3 -4 -4

GFSNGP_925_temp_285.txt.gz
Temp
11 12 12 12 12 13 14 16 15 17 18 19 21 22 23 23 24 23 21 19 18 16 14 14 12 12 12 11 11 10 9 9 9 9 8 8 8 8 7 7 7 6 6 5
8 10 11 11 12 13 14 15 16 17 18 20 20 21 21 22 22 22 20 19 18 18 16 14 13 12 12 11 10 10 9 9 9 9 8 8 7 7 7 7 6 6 5 5
6 9 9 7 10 12 13 15 16 15 17 17 16 17 17 19 22 22 22 20 19 19 17 15 14 13 12 11 10 10 9 8 8 8 8 8 8 7 7 7 6 5 5 5
5 6 1 10 13 14 14 15 16 16 15 14 13 15 17 15 15 16 21 20 19 18 17 16 14 13 12 11 10 9 9 8 8 7 7 7 7 7 7 6 6 5 5 5
1 6 7 8 10 11 11 11 14 14 12 12 12 14 15 13 14 15 18 20 20 20 18 16 14 13 12 11 10 10 9 8 8 7 7 7 6 7 6 6 6 5 5 4
4 3 3 10 12 13 12 10 10 10 9 9 10 8 10 10 11 14 16 20 19 19 17 15 14 13 12 11 11 10 9 8 8 7 7 6 6 6 6 6 6 5 5 5
5 4 6 10 11 11 10 7 5 8 8 7 6 7 8 9 9 13 14 18 18 17 16 15 14 13 12 11 11 10 9 8 8 7 6 6 6 6 6 6 5 5 4 4
6 5 5 6 8 6 5 4 5 5 7 7 7 7 7 8 9 11 13 16 16 15 15 15 14 13 12 11 11 10 9 8 7 7 6 6 6 6 6 6 5 5 3 3
3 4 6 7 7 7 5 7 7 6 6 7 7 7 7 6 7 8 12 14 15 17 16 15 14 13 12 11 11 10 8 8 7 7 7 6 6 6 6 6 4 4 3 2
4 6 6 6 8 7 8 8 8 8 7 7 8 7 7 7 5 7 11 11 13 11 15 15 14 13 12 11 10 9 8 8 7 7 6 6 6 5 5 4 4 3 3 2
3 4 5 6 7 7 7 8 8 8 8 7 7 8 6 6 5 6 8 10 10 12 15 15 14 13 12 11 10 9 8 7 7 7 6 5 5 5 5 5 5 4 3 3
2 4 4 5 6 7 6 6 7 7 7 7 7 7 7 5 4 3 6 7 9 12 13 15 14 13 12 11 10 9 8 7 7 6 5 5 5 4 5 5 5 5 5 4
4 5 5 5 6 6 6 6 7 7 7 6 7 8 8 5 4 3 4 6 9 12 13 15 14 13 12 11 10 9 8 7 6 6 5 3 3 3 2 4 5 5 5 5
4 4 4 5 5 6 6 6 6 6 6 6 7 7 7 7 5 4 4 6 8 9 12 13 14 13 12 11 9 8 8 7 6 5 5 2 2 1 2 2 1 1 4 4
4 4 4 5 5 5 6 5 5 5 6 6 7 7 7 7 8 5 3 4 6 8 11 13 14 13 11 10 9 8 7 6 6 5 3 2 1 1 1 1 0 -0 -0 1
5 5 5 5 5 5 5 5 5 5 5 5 6 6 7 7 8 7 4 3 5 7 10 9 13 12 10 9 8 8 7 6 6 5 2 1 0 0 -0 -1 -1 -2 -1 0
3 3 4 4 4 4 4 5 5 5 4 4 5 6 6 7 7 7 6 4 5 7 9 9 11 11 10 9 8 7 6 6 5 4 2 2 1 0 -0 -1 -2 -2 -1 0
4 4 4 3 3 3 3 3 3 3 3 3 4 4 5 6 6 7 7 4 5 7 7 8 9 12 10 9 8 7 5 5 4 4 3 1 1 0 -0 -1 -1 -2 -2 -1
3 3 3 3 3 3 2 2 2 2 2 2 2 2 3 4 5 6 6 5 4 4 6 8 8 11 9 9 8 6 5 4 4 3 2 1 1 0 -0 -1 -1 -2 -2 -1
2 2 2 3 3 3 2 2 2 1 1 1 1 2 2 3 4 4 4 4 4 5 6 7 7 8 9 8 7 5 5 4 4 3 2 1 1 0 -0 -1 -1 -2 -2 -1
3 3 2 2 2 2 2 2 2 1 0 1 1 2 2 3 4 4 3 3 5 5 5 7 7 7 8 7 6 4 4 4 3 2 2 1 1 0 -0 -1 -2 -2 -2 -2
3 3 2 2 2 2 1 1 1 1 1 1 1 1 2 3 3 3 4 5 5 5 5 6 7 7 6 6 4 4 4 3 3 2 2 1 0 -0 -1 -1 -3 -2 -2 -2
2 2 1 0 -0 -0 0 0 0 0 0 1 1 1 1 3 4 3 3 3 4 5 6 7 7 6 6 5 4 3 3 3 2 2 1 0 -0 -0 -1 -2 -3 -2 -2 -2
2 2 1 -0 -0 0 1 2 2 2 1 2 2 1 2 3 3 3 4 4 4 5 5 6 6 6 6 5 3 3 3 2 2 1 1 0 -1 -1 -1 -2 -2 -2 -2 -3
2 0 -1 -0 1 2 3 4 5 4 3 3 3 2 3 4 3 3 4 4 5 5 5 5 6 6 5 3 2 2 2 1 1 0 -0 -1 -1 -1 -2 -2 -2 -2 -2 -3
0 -0 0 1 1 2 3 4 3 4 3 3 3 3 4 4 4 4 4 4 5 5 4 5 5 5 3 2 2 2 1 0 -0 -1 -1 -1 -1 -2 -2 -2 -2 -2 -2 -2
0 0 1 1 2 1 2 5 3 1 1 1 1 2 3 3 3 4 4 4 4 4 3 3 3 3 2 1 1 0 0 -0 -1 -1 -1 -0 -2 -2 -2 -2 -1 -2 -2 -1

GFSNGP_925_temp_291.txt.gz
Temp
6 7 8 9 9 10 11 12 11 12 12 13 13 12 11 10 10 10 10 10 13 12 11 11 10 10 10 9 10 11 10 10 10 10 9 9 9 8 8 7 7 6 6 6
5 7 8 7 8 9 9 10 10 11 11 10 11 10 9 8 9 9 9 9 9 11 11 11 10 10 9 9 9 10 9 9 9 8 9 9 8 8 7 7 6 6 6 6
5 6 7 5 8 9 9 10 10 10 7 7 8 9 7 7 7 7 8 8 8 9 10 11 11 10 10 10 9 9 8 7 8 8 8 7 7 7 7 6 6 6 6 5
4 5 -2 7 8 8 8 6 6 7 6 6 6 7 7 7 7 7 7 7 7 8 9 9 12 10 10 10 9 8 7 7 7 7 7 7 6 6 6 6 6 6 5 5
-1 4 5 7 5 5 6 5 6 6 5 6 6 7 8 7 8 6 6 6 7 7 7 9 10 11 10 9 9 8 8 7 7 7 6 6 6 5 6 6 5 5 5 5
2 2 -0 4 5 6 5 6 5 5 5 4 5 3 4 6 7 6 6 6 6 6 7 9 11 12 10 9 8 8 7 7 7 6 6 5 5 5 5 6 6 5 5 5
3 3 4 4 5 6 6 4 3 5 6 5 4 4 5 5 6 6 6 6 6 6 6 6 11 11 10 9 8 8 8 7 6 6 6 6 5 5 5 4 5 4 4 4
2 0 1 4 5 3 4 3 4 5 5 5 5 5 6 6 6 6 4 5 5 5 6 7 8 11 10 9 9 8 7 7 6 6 6 5 5 4 4 4 4 3 3 3
-1 3 4 4 4 4 4 4 5 5 5 5 4 5 5 6 6 6 4 4 5 5 5 6 7 7 9 9 9 7 6 6 6 5 6 5 4 4 3 3 2 2 2 2
2 3 3 3 4 4 4 4 5 5 5 4 4 4 5 6 6 5 5 4 3 4 5 5 5 6 7 9 9 7 7 6 6 5 5 4 4 4 3 3 2 1 1 1
2 3 2 2 3 3 4 4 4 4 4 3 3 4 4 5 6 6 6 5 3 3 3 4 4 4 5 7 8 7 7 6 5 5 4 4 4 4 4 3 3 2 2 1
2 3 2 2 2 3 2 3 3 3 3 4 4 4 4 4 5 6 6 5 4 2 2 2 3 3 3 6 8 7 7 6 5 5 4 4 4 4 4 4 4 3 3 4
2 3 2 2 3 3 2 3 3 3 4 4 4 4 4 3 4 5 5 5 5 4 2 2 2 3 3 4 5 7 7 6 5 5 4 4 4 3 3 3 3 3 3 4
2 2 2 2 2 3 3 3 3 4 4 4 4 4 4 4 4 4 5 5 6 6 3 1 1 1 3 3 4 6 7 6 6 5 5 4 3 3 3 2 1 1 2 4
1 2 2 3 3 2 3 3 2 2 3 3 4 3 4 3 4 4 4 5 5 5 4 2 1 2 3 2 4 7 7 6 5 5 4 4 3 3 2 2 2 1 1 1
2 2 2 1 2 2 2 2 2 2 2 3 3 3 3 3 4 4 4 5 4 4 5 3 2 2 3 2 1 5 6 6 6 5 4 2 2 2 2 2 2 -0 -1 -1
1 1 1 1 1 2 2 2 2 2 2 2 2 3 3 3 3 3 4 4 4 4 4 4 4 3 3 3 0 4 5 4 4 4 2 2 2 2 2 2 1 -0 -0 -1
1 2 2 2 2 2 2 2 1 1 1 2 2 2 2 2 2 3 3 3 3 3 3 4 4 3 3 2 2 2 5 4 3 3 2 2 2 2 1 1 0 -0 -1 -2
1 1 1 1 2 2 2 1 1 1 2 2 1 1 1 1 2 2 2 1 1 1 2 2 3 3 2 3 3 1 3 4 3 2 2 1 1 1 1 0 -0 -1 -2 -2
1 1 2 2 2 1 1 1 1 1 1 1 1 0 -0 1 1 0 0 0 1 1 1 1 2 3 2 3 3 2 3 3 3 2 1 1 1 0 0 -0 -1 -2 -3 -2
1 -0 -0 -0 0 1 1 1 1 1 1 1 1 0 0 1 1 0 -0 -1 0 0 0 1 1 1 1 2 2 2 2 3 3 1 1 1 0 -0 -1 -1 -1 -2 -3 -2
-0 -0 -0 -0 -0 0 1 1 1 1 1 -0 -1 -1 -1 -1 -0 -0 -0 -0 0 0 0 0 0 1 1 2 1 1 3 2 2 1 1 0 0 -0 -1 -1 -2 -2 -3 -3
-0 0 0 -0 -0 0 1 1 1 1 -1 -1 -1 -1 -1 -1 -0 -1 -0 -0 -1 -0 -0 0 1 1 2 1 0 1 2 2 2 1 1 0 0 -0 -0 -1 -2 -3 -3 -2
-1 -0 -0 0 1 0 0 1 1 1 1 1 -1 -1 -1 -1 -0 -1 -0 0 1 0 -0 -0 0 1 2 1 1 2 2 2 2 1 1 0 -0 -0 -1 -1 -2 -3 -2 -2
-1 -0 -0 0 0 0 -0 0 0 0 0 0 1 1 1 -0 -0 1 1 -0 0 -0 -0 -0 0 1 2 1 1 3 2 2 2 1 0 -0 -0 -0 -0 -1 -2 -2 -2 -2
-1 -0 0 0 -0 -1 -1 -0 -1 -1 -0 -0 0 1 1 1 2 2 1 -0 -0 -1 -0 0 0 1 1 2 3 3 2 1 1 1 1 -0 -0 -1 -0 -1 -1 -2 -1 -1
0 -0 -1 -1 -1 -1 -1 -2 -2 -1 -1 -1 -0 0 0 1 1 0 -1 -1 -1 -0 -0 -0 0 1 1 1 2 1 2 1 1 0 0 -0 -1 -0 -0 -0 -0 -1 -1 -1